�������l�o���
Date,Time,MP-1(��Sv/h),MP-2(��Sv/h),MP-3(��Sv/h),MP-4(��Sv/h),MP-5(��Sv/h),MP-6(��Sv/h),MP-7(��Sv/h),MP-8(��Sv/h),����,����(m/s),���J
2023/05/27,00:00,0.550,0.812,0.490,0.976,0.713,0.323,0.571,0.538,��,3.4,��
2023/05/27,00:10,0.549,0.811,0.491,0.977,0.713,0.322,0.571,0.537,��,3.7,��
2023/05/27,00:20,0.548,0.811,0.491,0.978,0.712,0.321,0.569,0.537,��,3.7,��
2023/05/27,00:30,0.549,0.812,0.490,0.976,0.712,0.323,0.569,0.537,��,4.7,��
2023/05/27,00:40,0.552,0.811,0.490,0.979,0.714,0.323,0.570,0.538,��,5.4,��
2023/05/27,00:50,0.551,0.811,0.490,0.978,0.712,0.322,0.568,0.539,��,4.7,��
2023/05/27,01:00,0.551,0.811,0.492,0.976,0.712,0.322,0.570,0.538,��쐼,3.8,��
2023/05/27,01:10,0.550,0.812,0.489,0.977,0.711,0.321,0.569,0.538,��쐼,4.1,��
2023/05/27,01:20,0.550,0.811,0.493,0.978,0.713,0.321,0.569,0.538,��쐼,4.2,��
2023/05/27,01:30,0.550,0.813,0.492,0.979,0.713,0.323,0.570,0.539,��쐼,4.0,��
2023/05/27,01:40,0.550,0.811,0.492,0.978,0.713,0.323,0.568,0.538,��쐼,3.9,��
2023/05/27,01:50,0.551,0.812,0.490,0.978,0.712,0.323,0.569,0.539,��쐼,3.8,��
2023/05/27,02:00,0.549,0.812,0.490,0.977,0.711,0.323,0.570,0.539,��쐼,3.9,��
2023/05/27,02:10,0.551,0.811,0.490,0.979,0.711,0.324,0.570,0.538,��쐼,3.8,��
2023/05/27,02:20,0.549,0.812,0.491,0.976,0.712,0.324,0.569,0.539,��쐼,3.7,��
2023/05/27,02:30,0.550,0.811,0.491,0.976,0.711,0.322,0.571,0.539,��,2.5,��
2023/05/27,02:40,0.551,0.813,0.492,0.976,0.710,0.323,0.570,0.538,��,2.0,��
2023/05/27,02:50,0.549,0.811,0.492,0.978,0.712,0.323,0.571,0.537,��,2.6,��
2023/05/27,03:00,0.549,0.811,0.491,0.979,0.713,0.323,0.571,0.539,��쐼,2.3,��
2023/05/27,03:10,0.550,0.811,0.491,0.978,0.711,0.324,0.569,0.539,��,2.8,��
2023/05/27,03:20,0.550,0.811,0.490,0.978,0.712,0.323,0.569,0.538,��,3.7,��
2023/05/27,03:30,0.550,0.810,0.490,0.978,0.711,0.324,0.570,0.539,��쐼,4.3,��
2023/05/27,03:40,0.550,0.811,0.491,0.976,0.711,0.324,0.570,0.538,��쐼,4.1,��
2023/05/27,03:50,0.551,0.809,0.490,0.977,0.712,0.323,0.570,0.538,��쐼,3.5,��
2023/05/27,04:00,0.550,0.811,0.490,0.977,0.712,0.322,0.570,0.539,��쐼,3.6,��
2023/05/27,04:10,0.549,0.811,0.491,0.977,0.713,0.323,0.569,0.538,��쐼,3.8,��
2023/05/27,04:20,0.549,0.812,0.491,0.978,0.713,0.322,0.570,0.538,��,4.3,��
2023/05/27,04:30,0.550,0.812,0.490,0.977,0.713,0.324,0.570,0.539,��쐼,4.0,��
2023/05/27,04:40,0.549,0.810,0.491,0.978,0.713,0.323,0.569,0.537,��쐼,3.1,��
2023/05/27,04:50,0.550,0.811,0.491,0.977,0.712,0.322,0.570,0.539,��쐼,3.6,��
2023/05/27,05:00,0.550,0.809,0.491,0.978,0.711,0.324,0.570,0.539,��,3.7,��
2023/05/27,05:10,0.550,0.812,0.491,0.980,0.712,0.323,0.571,0.539,��,3.6,��
2023/05/27,05:20,0.550,0.810,0.493,0.978,0.711,0.322,0.570,0.538,��쐼,3.6,��
2023/05/27,05:30,0.549,0.811,0.491,0.977,0.711,0.323,0.570,0.539,��쐼,3.7,��
2023/05/27,05:40,0.551,0.812,0.490,0.977,0.712,0.323,0.571,0.537,��쐼,2.6,��
2023/05/27,05:50,0.549,0.809,0.492,0.977,0.712,0.323,0.569,0.538,��쐼,2.6,��
2023/05/27,06:00,0.551,0.811,0.491,0.978,0.711,0.322,0.571,0.538,��,2.6,��
2023/05/27,06:10,0.549,0.811,0.492,0.978,0.712,0.324,0.570,0.539,��쐼,1.9,��
2023/05/27,06:20,0.550,0.812,0.490,0.978,0.713,0.324,0.571,0.538,��,1.2,��
2023/05/27,06:30,0.551,0.810,0.492,0.979,0.711,0.323,0.569,0.538,-,CALM,��
2023/05/27,06:40,0.551,0.811,0.491,0.979,0.711,0.322,0.571,0.538,��,1.4,��
2023/05/27,06:50,0.551,0.810,0.492,0.977,0.710,0.321,0.571,0.538,��,1.5,��
2023/05/27,07:00,0.548,0.809,0.489,0.980,0.712,0.321,0.570,0.539,-,CALM,��
2023/05/27,07:10,0.548,0.809,0.492,0.978,0.712,0.320,0.571,0.537,�k�k��,0.6,��
2023/05/27,07:20,0.550,0.809,0.492,0.979,0.709,0.320,0.570,0.537,��,0.6,��
2023/05/27,07:30,0.548,0.808,0.489,0.979,0.712,0.322,0.568,0.538,��,1.1,��
2023/05/27,07:40,0.548,0.809,0.492,0.980,0.713,0.322,0.569,0.538,���쓌,1.4,��
2023/05/27,07:50,0.549,0.808,0.490,0.979,0.711,0.321,0.570,0.537,���쓌,1.2,��
2023/05/27,08:00,0.548,0.810,0.491,0.978,0.715,0.322,0.567,0.537,�쓌,1.2,��
2023/05/27,08:10,0.548,0.809,0.490,0.978,0.713,0.322,0.569,0.537,��,1.4,��
2023/05/27,08:20,0.549,0.812,0.491,0.978,0.712,0.322,0.570,0.536,��,1.7,��
2023/05/27,08:30,0.548,0.812,0.491,0.979,0.714,0.321,0.570,0.537,��,2.5,��
2023/05/27,08:40,0.549,0.812,0.491,0.979,0.711,0.322,0.568,0.537,���쓌,2.6,��
2023/05/27,08:50,0.549,0.810,0.491,0.982,0.714,0.323,0.569,0.537,���쓌,2.3,��
2023/05/27,09:00,0.552,0.813,0.491,0.977,0.715,0.322,0.568,0.537,���쓌,2.8,��
2023/05/27,09:10,0.551,0.812,0.490,0.980,0.711,0.323,0.569,0.538,�쓌,2.5,��
2023/05/27,09:20,0.550,0.810,0.490,0.977,0.712,0.322,0.569,0.537,�쓌,2.3,��
2023/05/27,09:30,0.549,0.811,0.489,0.982,0.714,0.323,0.567,0.537,���쓌,3.3,��
2023/05/27,09:40,0.551,0.812,0.488,0.980,0.713,0.322,0.569,0.538,�쓌,3.8,��
2023/05/27,09:50,0.552,0.812,0.491,0.980,0.714,0.323,0.569,0.536,�쓌,3.3,��
2023/05/27,10:00,0.551,0.812,0.491,0.980,0.713,0.322,0.569,0.538,�쓌,4.2,��
2023/05/27,10:10,0.549,0.812,0.490,0.980,0.714,0.323,0.569,0.537,��쓌,4.0,��
2023/05/27,10:20,0.551,0.810,0.491,0.981,0.712,0.324,0.569,0.538,��쓌,4.8,��
2023/05/27,10:30,0.552,0.812,0.491,0.980,0.715,0.323,0.570,0.538,��쓌,5.3,��
2023/05/27,10:40,0.552,0.813,0.491,0.980,0.715,0.323,0.570,0.537,��쓌,5.4,��
2023/05/27,10:50,0.552,0.812,0.492,0.979,0.716,0.322,0.569,0.538,��쓌,5.3,��
2023/05/27,11:00,0.553,0.813,0.491,0.979,0.713,0.324,0.569,0.539,��쓌,4.3,��
2023/05/27,11:10,0.553,0.813,0.492,0.980,0.713,0.324,0.570,0.538,��쓌,5.1,��
2023/05/27,11:20,0.551,0.814,0.492,0.979,0.716,0.322,0.570,0.538,��쓌,5.6,��
2023/05/27,11:30,0.552,0.812,0.492,0.978,0.718,0.323,0.570,0.538,��쓌,6.1,��
2023/05/27,11:40,0.552,0.813,0.490,0.980,0.715,0.324,0.570,0.537,��쓌,6.7,��
2023/05/27,11:50,0.552,0.815,0.493,0.979,0.716,0.324,0.571,0.537,��쓌,6.2,��
2023/05/27,12:00,0.552,0.817,0.491,0.978,0.716,0.324,0.570,0.538,��쓌,7.6,��
2023/05/27,12:10,0.552,0.814,0.492,0.981,0.716,0.324,0.572,0.539,��쓌,7.8,��
2023/05/27,12:20,0.554,0.814,0.492,0.978,0.717,0.324,0.570,0.537,��쓌,6.6,��
2023/05/27,12:30,0.553,0.815,0.494,0.978,0.716,0.323,0.571,0.537,��쓌,7.4,��
2023/05/27,12:40,0.552,0.815,0.492,0.981,0.718,0.323,0.569,0.538,��쓌,7.9,��
2023/05/27,12:50,0.555,0.814,0.493,0.981,0.716,0.325,0.572,0.537,��쓌,8.0,��
2023/05/27,13:00,0.553,0.815,0.493,0.980,0.718,0.324,0.571,0.537,��쓌,6.8,��
2023/05/27,13:10,0.554,0.815,0.492,0.983,0.718,0.324,0.572,0.539,��쓌,7.3,��
2023/05/27,13:20,0.555,0.815,0.491,0.981,0.718,0.324,0.572,0.538,��쓌,7.7,��
2023/05/27,13:30,0.554,0.813,0.492,0.981,0.718,0.323,0.572,0.539,��쓌,7.4,��
2023/05/27,13:40,0.553,0.816,0.493,0.982,0.719,0.324,0.571,0.537,��쓌,7.7,��
2023/05/27,13:50,0.553,0.816,0.493,0.980,0.719,0.324,0.573,0.539,��쓌,7.7,��
2023/05/27,14:00,0.554,0.815,0.494,0.982,0.718,0.324,0.572,0.538,��쓌,7.4,��
2023/05/27,14:10,0.554,0.817,0.492,0.983,0.721,0.325,0.572,0.540,��쓌,7.6,��
2023/05/27,14:20,0.554,0.815,0.491,0.982,0.720,0.324,0.571,0.538,��쓌,7.7,��
2023/05/27,14:30,0.553,0.815,0.493,0.981,0.721,0.323,0.573,0.537,��쓌,9.1,��
2023/05/27,14:40,0.553,0.817,0.494,0.982,0.720,0.323,0.570,0.539,��쓌,9.6,��
2023/05/27,14:50,0.554,0.814,0.493,0.982,0.720,0.324,0.570,0.538,��쓌,9.2,��
2023/05/27,15:00,0.552,0.816,0.493,0.983,0.719,0.323,0.571,0.539,��쓌,9.6,��
2023/05/27,15:10,0.553,0.816,0.493,0.983,0.720,0.326,0.572,0.538,��쓌,9.1,��
2023/05/27,15:20,0.553,0.815,0.493,0.984,0.720,0.323,0.572,0.535,��쓌,10.0,��
2023/05/27,15:30,0.553,0.816,0.492,0.983,0.719,0.324,0.572,0.539,��쓌,9.0,��
2023/05/27,15:40,0.554,0.815,0.492,0.985,0.720,0.325,0.570,0.539,��쓌,8.9,��
2023/05/27,15:50,0.555,0.814,0.493,0.985,0.720,0.323,0.571,0.538,��,9.7,��
2023/05/27,16:00,0.556,0.816,0.493,0.982,0.718,0.324,0.572,0.538,��쓌,10.5,��
2023/05/27,16:10,0.553,0.817,0.493,0.985,0.720,0.324,0.572,0.538,��,10.2,��
2023/05/27,16:20,0.554,0.814,0.493,0.983,0.720,0.324,0.570,0.538,��,9.5,��
2023/05/27,16:30,0.552,0.816,0.494,0.985,0.719,0.324,0.570,0.540,��,9.2,��
2023/05/27,16:40,0.554,0.815,0.491,0.983,0.720,0.323,0.572,0.539,��,8.0,��
2023/05/27,16:50,0.554,0.816,0.491,0.984,0.719,0.324,0.570,0.539,��,8.6,��
2023/05/27,17:00,0.554,0.817,0.493,0.984,0.720,0.323,0.570,0.538,��,7.6,��
2023/05/27,17:10,0.552,0.818,0.493,0.983,0.720,0.324,0.570,0.537,��,6.5,��
2023/05/27,17:20,0.554,0.818,0.494,0.984,0.720,0.324,0.570,0.539,��쓌,7.5,��
2023/05/27,17:30,0.555,0.818,0.494,0.983,0.718,0.325,0.570,0.536,��,6.9,��
2023/05/27,17:40,0.553,0.820,0.493,0.986,0.720,0.324,0.569,0.536,��쓌,6.7,��
2023/05/27,17:50,0.554,0.818,0.493,0.984,0.720,0.324,0.571,0.539,��,9.2,��
2023/05/27,18:00,0.554,0.818,0.493,0.986,0.720,0.323,0.569,0.539,��,8.7,��
2023/05/27,18:10,0.553,0.818,0.491,0.986,0.720,0.322,0.571,0.539,��,8.7,��
2023/05/27,18:20,0.553,0.819,0.492,0.985,0.720,0.323,0.570,0.541,��,9.8,��
2023/05/27,18:30,0.553,0.817,0.492,0.986,0.721,0.324,0.570,0.540,��,8.9,��
2023/05/27,18:40,0.553,0.819,0.491,0.987,0.719,0.323,0.572,0.540,��,10.0,��
2023/05/27,18:50,0.554,0.818,0.492,0.985,0.720,0.323,0.571,0.540,��,10.0,��
2023/05/27,19:00,0.553,0.816,0.491,0.987,0.721,0.323,0.572,0.540,��,9.1,��
2023/05/27,19:10,0.553,0.816,0.492,0.986,0.719,0.323,0.571,0.541,��,8.9,��
2023/05/27,19:20,0.552,0.818,0.491,0.988,0.721,0.323,0.573,0.541,��,7.8,��
2023/05/27,19:30,0.553,0.818,0.494,0.988,0.723,0.324,0.572,0.540,��,6.6,��
2023/05/27,19:40,0.552,0.818,0.495,0.988,0.718,0.324,0.573,0.541,��,5.7,��
2023/05/27,19:50,0.555,0.818,0.494,0.988,0.724,0.323,0.571,0.540,��,5.1,��
2023/05/27,20:00,0.554,0.820,0.495,0.988,0.725,0.324,0.572,0.540,��,5.7,��
2023/05/27,20:10,0.555,0.821,0.494,0.987,0.721,0.323,0.572,0.541,��,5.7,��
2023/05/27,20:20,0.555,0.820,0.494,0.988,0.722,0.322,0.570,0.541,��,6.1,��
2023/05/27,20:30,0.553,0.818,0.495,0.988,0.722,0.322,0.573,0.541,��,6.6,��
2023/05/27,20:40,0.554,0.818,0.495,0.988,0.722,0.323,0.572,0.541,��,5.0,��
2023/05/27,20:50,0.554,0.820,0.495,0.988,0.722,0.324,0.571,0.541,��,5.9,��
2023/05/27,21:00,0.555,0.819,0.494,0.989,0.721,0.322,0.572,0.540,��,5.6,��
2023/05/27,21:10,0.555,0.819,0.495,0.989,0.720,0.324,0.572,0.539,��쓌,5.9,��
2023/05/27,21:20,0.556,0.820,0.494,0.988,0.720,0.324,0.573,0.541,��,5.8,��
2023/05/27,21:30,0.554,0.818,0.494,0.989,0.723,0.324,0.572,0.541,��,5.6,��
2023/05/27,21:40,0.556,0.819,0.494,0.989,0.724,0.324,0.574,0.541,��,4.4,��
2023/05/27,21:50,0.554,0.817,0.495,0.987,0.720,0.324,0.573,0.540,��,5.4,��
2023/05/27,22:00,0.555,0.820,0.494,0.988,0.721,0.324,0.573,0.539,��쐼,4.5,��
2023/05/27,22:10,0.555,0.821,0.494,0.988,0.722,0.324,0.575,0.539,��,4.2,��
2023/05/27,22:20,0.554,0.819,0.494,0.987,0.723,0.326,0.573,0.540,��,5.2,��
2023/05/27,22:30,0.555,0.820,0.495,0.989,0.722,0.325,0.573,0.540,��,5.5,��
2023/05/27,22:40,0.555,0.820,0.495,0.987,0.723,0.325,0.574,0.540,��,4.7,��
2023/05/27,22:50,0.556,0.819,0.494,0.988,0.722,0.325,0.574,0.539,��,5.3,��
2023/05/27,23:00,0.554,0.817,0.494,0.988,0.721,0.325,0.574,0.541,��,4.6,��
2023/05/27,23:10,0.555,0.819,0.493,0.988,0.721,0.325,0.573,0.539,��쐼,5.0,��
2023/05/27,23:20,0.555,0.818,0.493,0.989,0.721,0.325,0.573,0.540,��,6.1,��
2023/05/27,23:30,0.556,0.819,0.494,0.988,0.720,0.324,0.574,0.541,��,6.0,��
2023/05/27,23:40,0.555,0.819,0.494,0.986,0.723,0.326,0.575,0.540,��,6.2,��
2023/05/27,23:50,0.555,0.824,0.495,0.988,0.721,0.325,0.573,0.540,��,5.4,��
